Wind_Speed
33 32 31 30 29 28 27 25 24 22 21 20 20 20 18 16 15 15 16 17 17 18 19 20 22 23 25 27 29 30 30 31 30 31 31 32 33 35 37 37 37 38 39 40 41 41 42 43 45 47 48 51 52 52 52 53 52 52 52 52 50 46 46 46 45 48 49 45 46 53 58 61 64 64 63 61 59 54 52 57 63 65 64 62 62 63 60
32 31 30 29 28 27 26 25 23 22 20 20 19 17 15 14 14 15 17 18 19 20 21 22 23 25 26 28 29 29 30 30 31 32 33 35 37 38 39 38 37 36 36 37 37 36 36 37 39 40 41 45 48 48 49 51 51 52 53 53 52 49 48 48 46 47 48 46 46 50 54 59 63 63 62 63 62 60 61 64 66 68 67 61 57 59 61
31 30 29 28 27 26 25 24 23 22 21 20 18 15 14 14 15 16 18 20 20 21 23 24 25 26 27 28 28 29 29 29 31 32 34 37 40 40 39 36 33 31 30 29 29 30 30 30 31 32 34 38 41 43 45 47 49 50 51 52 52 51 51 51 49 49 48 45 47 50 50 54 58 59 62 67 66 65 68 69 68 69 69 65 55 46 48
31 29 29 28 27 26 24 24 24 23 22 19 16 15 15 16 16 18 20 21 21 23 24 25 26 26 28 28 28 28 29 29 30 33 36 38 38 36 32 29 26 24 23 22 21 22 23 24 25 27 29 31 33 35 38 42 45 47 49 50 51 53 53 52 51 51 49 46 48 51 48 49 56 61 67 70 69 68 68 69 70 70 67 68 64 49 41
30 28 28 27 27 25 24 24 24 23 21 18 16 16 16 17 17 19 22 22 23 24 25 25 26 27 28 28 28 28 28 29 31 34 36 35 33 29 25 22 19 17 17 16 16 15 16 17 19 22 25 27 28 28 31 36 40 43 46 48 50 53 53 53 53 53 51 50 50 52 51 51 57 66 71 72 70 70 70 70 71 71 69 68 67 61 54
29 28 27 27 26 25 24 24 24 22 19 18 17 17 17 17 18 20 23 24 24 25 25 25 26 27 27 28 28 28 29 30 32 34 33 31 27 24 20 17 15 13 13 13 14 14 15 17 18 19 22 25 25 24 25 28 33 37 42 45 49 52 53 53 55 55 54 53 52 52 52 53 56 64 69 71 71 71 71 71 71 72 74 70 64 64 63
28 27 28 27 26 24 23 24 23 21 19 18 18 17 17 18 19 21 23 24 24 24 24 25 26 27 28 28 28 29 30 31 32 32 29 27 24 21 17 15 13 12 12 12 12 13 14 15 17 18 20 22 24 25 24 25 28 31 35 40 45 50 52 54 56 57 56 54 52 52 52 52 55 61 66 69 71 71 71 72 73 72 74 71 66 67 63
27 27 28 27 26 24 23 23 23 21 19 18 18 17 18 19 20 23 24 24 24 24 24 26 27 28 28 29 29 29 31 31 29 28 27 25 22 18 15 14 13 12 10 10 10 11 11 12 14 15 17 19 22 25 25 26 27 30 32 35 40 45 50 54 57 59 58 54 53 54 53 51 53 58 64 67 69 71 71 72 73 73 73 72 70 70 64
26 27 28 28 26 24 23 23 22 21 20 19 18 18 19 20 22 24 26 25 25 25 25 26 28 28 28 29 30 30 31 29 26 24 24 22 19 15 13 12 12 10 9 9 9 9 9 10 11 13 13 15 18 22 26 28 30 32 34 36 37 39 45 51 55 58 59 56 54 55 54 53 53 57 62 66 68 70 71 71 71 72 73 72 71 71 66
25 27 28 28 27 26 24 23 22 21 19 18 18 18 19 21 23 25 26 26 26 26 26 27 28 28 28 29 30 30 30 27 22 21 21 20 16 13 11 10 10 9 8 9 9 9 9 9 10 10 10 12 15 17 22 28 31 33 35 36 36 35 38 43 49 54 57 57 56 54 53 55 56 57 60 65 68 69 69 70 70 71 70 67 67 70 66
25 26 27 28 28 27 25 24 22 21 18 17 17 18 20 22 23 25 27 27 26 26 27 27 27 27 28 29 30 30 29 25 19 17 18 18 16 14 12 11 9 8 7 8 8 8 8 8 9 9 10 11 13 15 18 23 28 32 34 35 35 34 35 37 41 47 52 56 57 53 50 53 56 55 55 60 66 67 66 69 70 69 67 64 64 68 66
26 27 28 28 29 28 27 25 23 22 19 17 17 17 19 21 23 25 26 27 26 26 27 27 27 27 27 28 29 30 29 24 17 14 15 17 17 16 14 12 10 9 8 7 6 6 7 7 7 8 10 11 12 15 17 19 24 28 31 34 34 34 34 34 36 39 43 49 54 53 51 51 49 48 49 53 61 64 65 70 71 68 67 66 64 66 65
27 28 29 29 29 28 27 25 24 23 21 18 17 17 18 20 22 24 26 26 26 26 27 26 26 26 26 27 28 29 28 23 16 12 14 17 19 18 17 16 14 12 10 8 5 4 5 6 6 7 9 10 11 13 15 18 22 25 27 30 32 33 33 33 33 35 36 41 48 52 51 48 44 47 49 49 55 64 69 71 71 67 66 67 66 66 65
29 30 30 29 28 27 26 25 25 24 22 20 18 17 17 19 21 23 25 26 26 26 26 25 26 26 26 26 27 28 27 24 17 13 13 16 19 19 18 19 18 15 12 9 7 6 7 8 8 9 11 12 14 14 15 16 21 25 26 27 29 31 32 32 32 33 34 36 41 44 46 46 46 50 52 50 54 65 71 71 70 67 65 66 66 67 65
31 31 30 29 27 26 25 25 25 25 23 21 19 17 17 18 20 22 24 25 25 25 25 25 26 26 26 25 26 26 26 24 19 14 12 14 16 18 18 18 18 16 13 10 8 8 10 10 10 11 11 13 16 17 17 16 18 22 27 28 28 28 30 31 32 32 32 35 38 40 43 46 46 48 53 54 55 62 67 69 68 68 65 63 64 66 64
31 30 30 29 27 26 26 26 28 27 24 20 18 17 16 17 19 21 22 23 24 24 25 25 26 26 25 25 25 25 25 24 20 16 13 12 13 15 16 17 17 16 14 10 8 9 11 11 10 9 9 12 17 18 17 17 17 20 25 29 31 30 29 30 32 32 31 34 38 40 42 44 43 44 49 55 57 60 65 66 64 65 64 62 63 64 62
31 31 30 29 27 27 26 27 30 28 23 19 17 17 17 18 19 20 20 22 23 24 25 26 26 26 26 25 24 25 25 24 21 18 15 13 13 14 15 16 17 17 15 12 11 11 11 10 9 9 8 9 15 16 14 15 16 18 22 28 32 32 30 31 32 32 32 34 37 39 40 43 43 43 46 52 56 59 64 66 64 63 63 61 61 61 60
32 31 31 29 27 27 27 28 29 28 22 18 18 18 17 18 19 19 21 23 24 24 25 26 26 27 27 26 25 24 24 24 22 20 17 14 14 15 16 17 18 18 17 16 14 12 10 9 10 11 8 5 11 13 12 11 12 14 19 24 29 33 32 31 32 32 32 34 37 38 40 42 44 43 43 48 53 57 64 68 66 64 62 59 58 59 59
32 32 31 29 28 27 28 27 27 26 23 20 20 19 19 19 19 20 22 23 23 24 25 26 27 27 27 27 25 24 24 24 23 21 18 15 14 14 15 17 18 18 19 18 15 12 11 12 12 12 9 4 6 9 10 8 8 13 16 17 21 27 31 32 32 32 31 33 36 39 40 40 41 41 41 45 51 56 63 68 66 64 63 59 55 57 59
31 32 31 31 30 29 28 27 26 24 23 22 21 22 21 20 20 21 22 21 22 24 25 26 27 27 27 27 26 24 23 23 24 22 20 17 16 14 14 16 17 17 18 17 13 11 13 15 16 13 10 7 7 8 10 8 3 8 14 15 14 18 25 30 31 31 32 34 37 38 39 39 38 39 40 45 51 55 59 65 65 62 62 60 55 55 58
31 32 32 32 30 29 28 26 25 24 24 23 23 23 23 22 22 22 21 20 22 24 25 26 27 27 27 27 26 25 23 23 23 24 22 20 19 16 14 14 15 15 16 16 12 10 12 15 17 17 14 11 10 11 10 9 6 2 7 13 14 16 22 27 29 31 33 35 35 35 35 36 38 39 40 44 51 53 54 61 66 63 59 59 57 54 56
30 31 32 31 30 29 28 28 27 27 26 26 25 24 23 22 23 22 20 21 23 25 25 26 26 26 27 27 26 26 24 23 22 23 23 22 21 18 14 12 12 13 14 14 12 10 11 13 15 18 18 16 14 11 9 8 8 7 5 4 9 14 19 23 25 29 33 34 34 35 36 36 37 39 40 43 51 54 53 57 64 64 58 56 57 56 55
29 30 30 29 29 29 29 30 30 30 29 28 27 26 24 23 23 22 21 22 25 25 25 25 25 26 27 27 26 26 25 24 23 22 21 21 22 20 16 12 11 12 14 14 12 10 11 12 13 15 18 18 16 14 11 9 8 7 6 2 4 10 14 16 20 25 30 32 34 36 37 37 36 37 39 43 50 55 54 53 57 63 61 56 56 57 55
28 29 29 28 28 29 29 30 30 30 30 30 29 28 26 25 24 22 22 23 25 25 25 24 25 27 28 27 26 25 25 26 25 23 21 20 21 21 19 16 13 13 14 14 13 12 11 11 12 14 16 17 17 15 12 10 7 5 3 1 5 11 15 15 17 22 26 31 35 36 37 36 36 36 39 44 50 55 57 53 51 56 61 59 56 56 55
27 28 28 28 28 28 28 29 29 29 29 29 29 28 28 27 26 24 23 24 26 25 25 24 25 26 27 27 26 25 26 26 26 25 24 22 20 20 20 18 17 16 16 15 14 14 14 14 15 17 18 18 18 17 14 11 7 3 3 4 6 9 12 15 18 20 22 26 30 31 32 32 33 35 40 46 50 53 55 54 51 50 55 57 57 56 54
27 27 27 27 28 28 27 28 28 28 28 28 28 28 28 28 27 25 24 25 26 26 25 24 24 25 27 27 26 26 25 25 25 26 26 25 23 21 19 17 16 15 14 13 14 16 18 18 18 19 21 20 19 19 18 15 10 4 2 7 8 10 12 16 19 20 19 21 23 24 25 28 32 37 42 46 49 51 51 50 50 49 48 52 56 57 54
26 26 26 26 27 27 27 27 27 27 27 27 27 27 27 27 26 26 25 26 26 26 26 25 25 25 27 27 27 26 25 24 24 25 26 26 26 24 21 18 16 14 13 13 15 17 18 19 19 20 21 20 19 19 19 18 13 7 1 6 11 13 14 16 20 21 20 20 21 20 21 26 31 37 41 44 47 49 49 47 49 49 47 48 53 57 55
25 24 24 25 25 26 26 26 26 27 27 27 27 27 26 26 26 26 26 26 26 26 27 26 26 26 26 27 27 26 25 23 23 24 26 26 26 25 24 22 20 18 16 14 13 14 16 17 18 19 19 19 19 18 18 17 16 10 5 4 9 14 16 16 18 21 22 22 21 20 19 24 31 36 39 41 43 45 46 46 47 49 47 46 49 54 55
24 24 24 24 24 24 25 25 25 26 26 26 26 26 26 26 26 26 26 26 26 26 26 26 26 26 26 26 27 26 26 24 24 25 26 26 25 25 24 23 22 21 19 17 14 13 14 15 16 17 18 17 17 17 16 15 15 13 9 5 5 11 18 18 16 18 22 23 22 20 20 23 29 34 36 38 41 43 44 45 45 46 46 46 47 51 53
23 23 23 23 23 23 24 24 24 25 25 25 25 25 25 25 25 25 25 25 25 26 25 26 26 26 25 26 26 26 26 26 25 25 25 25 25 25 25 24 23 22 22 22 21 19 16 14 14 16 16 16 16 15 14 13 13 13 12 9 5 6 16 21 17 15 18 21 20 19 20 23 27 32 35 37 40 42 42 45 45 44 43 45 46 48 51
23 23 22 22 22 22 22 22 23 23 23 23 23 24 24 24 25 25 25 25 25 25 25 25 25 25 24 24 24 25 25 25 25 25 25 26 26 27 27 26 25 25 25 25 25 25 23 20 16 15 15 16 16 14 14 13 13 13 13 12 9 6 12 20 20 15 16 18 18 17 20 23 26 30 34 37 39 40 41 46 48 44 40 42 44 46 49
22 22 22 22 22 21 21 21 21 21 21 22 22 23 23 24 24 24 25 25 25 25 24 24 24 24 24 23 23 22 23 23 23 24 25 26 26 27 27 27 27 27 28 28 28 28 27 25 22 19 16 15 14 12 12 13 13 12 13 13 11 7 7 14 19 18 16 17 16 16 20 23 25 28 32 37 40 40 41 46 49 45 39 40 42 44 48
22 22 22 22 22 22 21 21 20 20 21 21 21 22 23 23 24 24 25 25 25 24 24 23 23 23 23 22 22 21 21 22 22 22 23 25 25 26 26 27 27 27 28 29 29 29 28 27 26 25 22 19 16 12 8 7 9 11 12 13 12 10 7 8 13 17 17 16 15 15 19 23 25 27 29 34 39 41 42 47 50 46 41 41 42 44 48
21 21 21 22 22 22 21 21 21 21 21 21 22 23 23 23 23 24 24 25 24 24 23 22 22 22 21 21 21 21 21 21 22 22 22 24 24 24 25 26 26 27 28 28 28 27 27 27 27 26 26 24 22 18 12 7 7 8 9 11 12 11 9 7 8 12 16 16 16 16 19 22 25 26 28 32 37 40 42 46 49 46 43 43 44 44 47
21 21 21 22 22 22 22 21 21 21 22 22 23 23 23 22 22 23 23 24 23 23 23 22 21 20 20 20 20 20 20 21 22 22 22 23 24 24 24 25 25 26 26 27 26 26 26 26 25 25 26 25 24 23 20 16 13 10 8 8 9 10 11 9 8 9 12 14 15 17 19 21 23 26 28 31 34 37 40 44 46 44 40 40 43 45 47
21 21 21 21 22 22 22 22 21 21 22 22 23 23 22 22 22 22 23 23 22 22 22 22 21 20 20 20 19 19 19 20 21 22 22 23 23 23 23 24 25 25 25 25 26 25 25 24 24 24 25 24 24 24 24 22 19 16 13 11 9 9 10 10 7 7 10 12 14 15 17 19 21 24 28 31 34 36 39 43 45 43 38 35 37 42 46
20 20 20 21 21 22 22 22 21 21 21 22 22 22 23 22 22 22 22 22 22 21 21 21 21 20 20 19 19 19 19 20 20 21 22 22 22 23 22 23 24 24 24 24 24 24 24 24 24 24 24 24 24 24 24 22 21 20 18 16 13 11 10 9 7 5 6 11 13 15 17 18 19 21 24 29 33 35 37 40 43 44 41 36 33 36 43
20 20 20 20 20 21 21 21 21 21 21 21 21 22 22 22 22 22 22 22 22 22 21 21 20 20 19 19 18 18 18 18 19 20 20 20 21 22 22 22 24 25 24 24 24 23 22 22 23 23 24 24 23 23 22 21 21 20 19 18 16 13 11 9 7 5 3 6 11 15 17 18 19 19 21 24 28 31 34 37 41 44 44 41 37 34 37
20 20 20 20 20 20 20 20 21 21 22 22 22 22 22 22 22 22 22 22 22 22 21 21 21 20 19 19 18 17 17 17 18 19 18 18 20 21 22 21 23 24 24 24 24 23 21 21 21 21 22 22 22 21 21 20 20 20 19 19 17 15 13 10 7 5 3 4 8 12 16 18 19 20 20 21 23 25 29 33 38 41 42 43 42 38 35
20 20 21 20 20 20 20 20 21 21 22 22 23 24 24 24 23 23 22 22 22 21 21 21 21 20 19 19 18 16 16 17 17 17 17 17 18 20 21 22 24 25 25 25 24 23 21 20 19 19 20 21 20 20 19 18 18 17 17 17 17 16 14 11 7 5 2 2 4 8 13 17 19 20 20 20 21 23 25 28 32 35 38 40 41 42 38
21 21 21 21 21 21 21 21 21 22 22 23 23 24 24 25 25 24 23 22 21 21 21 21 20 20 20 20 19 17 16 17 17 17 17 17 18 19 20 22 25 26 25 26 26 25 23 21 20 19 18 19 19 18 17 17 17 16 15 15 16 16 15 13 10 6 3 1 2 5 9 13 17 19 20 20 21 21 23 24 26 29 33 35 36 38 39
21 21 22 22 21 22 22 22 22 23 22 23 23 23 24 25 25 24 23 22 21 21 21 20 20 20 21 21 20 19 17 18 18 18 18 18 19 19 20 23 25 26 27 28 29 28 26 24 22 20 18 18 17 17 16 15 15 16 15 14 14 14 14 13 12 8 5 2 1 3 6 9 13 16 19 20 21 21 22 23 23 24 26 29 31 31 33
20 21 22 22 22 22 22 22 23 24 23 23 23 24 24 25 25 25 24 23 22 21 21 20 20 20 20 20 21 20 19 18 19 19 19 19 19 19 21 23 25 26 27 28 29 29 27 25 23 22 20 19 17 17 16 14 14 14 14 14 13 12 12 13 12 10 7 3 1 2 4 7 10 13 17 19 20 21 22 22 22 22 22 23 25 26 27
20 21 21 21 22 22 23 23 23 24 24 24 24 25 25 25 26 25 24 24 23 22 21 21 21 20 20 21 21 20 20 19 20 20 19 19 19 20 21 23 25 26 27 28 28 28 28 27 26 25 23 21 19 18 17 16 14 13 13 13 13 12 12 12 12 11 9 6 3 2 3 5 7 10 14 17 20 22 23 23 23 23 23 23 23 24 24
21 21 22 22 22 23 24 24 24 24 24 25 26 26 26 28 29 27 25 25 26 25 23 21 21 22 23 23 22 20 20 21 21 21 21 20 20 19 20 22 25 26 27 27 28 28 28 28 27 25 24 22 20 19 18 17 16 15 13 12 13 13 12 12 12 12 11 9 6 4 3 4 6 8 10 14 17 20 22 24 25 26 26 26 26 25 25
21 21 22 23 23 24 24 25 25 25 25 25 27 28 28 29 32 32 30 30 31 31 29 26 25 27 27 25 22 20 20 21 22 22 22 20 19 19 20 23 25 26 26 27 28 28 27 27 26 25 23 22 21 20 18 18 17 17 16 14 13 13 13 12 12 11 12 11 9 6 4 3 5 7 9 11 14 17 19 22 24 26 27 28 28 29 28
21 21 22 22 23 24 24 24 25 25 25 25 26 28 29 30 32 35 34 33 33 34 32 30 29 29 27 24 21 20 21 22 22 22 21 19 18 19 21 24 25 27 28 28 28 27 26 25 23 22 22 21 21 20 20 19 19 18 17 16 15 13 13 13 13 12 12 12 12 9 6 5 5 6 9 11 12 14 17 20 21 23 26 27 28 29 30
20 21 21 22 23 24 24 24 24 25 26 25 25 28 30 30 31 32 31 30 31 32 31 30 29 27 23 21 20 21 22 22 22 22 20 18 19 21 23 25 26 27 26 25 24 24 23 21 20 20 21 22 22 22 21 20 19 18 18 17 16 14 13 12 13 12 12 12 12 12 10 8 6 5 7 10 12 13 16 18 20 22 23 25 27 28 29
20 20 21 22 22 23 23 24 24 24 25 25 26 28 30 30 30 31 30 30 31 33 32 32 30 26 21 20 21 22 22 23 25 24 21 18 20 24 26 27 26 24 22 21 21 20 19 18 19 21 22 23 23 23 23 21 20 19 18 16 15 14 13 12 12 12 12 12 12 13 13 11 9 7 7 9 11 13 15 17 19 21 22 23 24 25 26
19 20 21 22 23 23 23 23 23 24 24 25 26 29 31 31 31 33 34 34 34 34 34 34 32 28 24 22 23 23 23 25 25 22 20 21 24 26 27 26 24 21 19 20 21 19 17 17 19 22 23 25 25 25 24 23 21 19 18 17 16 15 13 12 12 11 11 11 11 12 13 13 12 10 9 9 10 12 14 16 18 20 21 22 23 24 25
19 20 21 22 23 23 24 24 24 24 25 26 28 30 32 32 32 34 35 36 36 36 35 34 33 30 27 25 24 26 27 26 22 20 22 26 28 28 27 25 22 20 21 22 21 18 16 17 21 24 27 27 26 24 22 21 21 20 18 17 16 15 14 13 13 12 11 10 10 11 12 13 13 13 12 11 10 11 13 15 17 18 20 22 23 24 24
19 20 21 22 23 24 24 25 25 25 27 28 29 31 32 33 33 34 35 35 35 35 35 35 34 31 28 26 27 28 28 26 24 25 27 29 29 28 27 25 22 22 22 23 20 17 16 19 24 28 30 27 22 18 17 18 19 20 20 19 18 17 16 15 14 14 13 12 10 10 11 12 13 14 14 14 13 12 12 13 14 16 18 20 22 23 24
Wind_Direction
342 342 342 341 341 340 340 341 342 344 344 342 339 337 337 340 341 341 342 342 341 341 341 338 334 330 328 325 323 320 316 312 307 302 298 293 289 285 281 279 277 274 271 269 267 265 261 258 255 253 252 250 247 245 243 243 243 242 240 239 236 233 232 230 228 229 229 229 228 224 220 219 218 215 213 215 217 217 218 218 219 220 221 225 230 232 232
343 344 344 343 343 343 343 344 346 348 347 342 338 339 345 350 350 349 349 349 349 349 346 342 337 334 331 327 324 320 315 311 307 303 299 294 291 291 290 289 287 283 278 273 268 265 262 260 258 255 254 252 249 245 243 241 241 240 238 238 235 232 230 228 226 226 227 228 229 227 223 220 218 217 215 213 213 215 217 217 217 218 219 222 227 232 233
345 345 345 345 346 346 346 348 349 349 347 344 343 348 356 0 359 357 357 355 354 353 349 345 341 337 333 329 325 321 316 312 308 304 300 297 296 297 298 297 293 288 282 273 264 258 255 254 253 252 252 252 249 246 244 241 239 238 237 236 234 231 229 227 224 223 223 224 226 226 224 220 217 218 219 215 211 214 217 217 219 219 219 221 223 227 230
346 347 347 347 348 349 350 351 351 350 348 348 351 357 2 3 3 1 1 359 355 353 351 347 343 339 335 331 327 323 319 315 312 307 304 303 303 304 304 300 295 287 277 268 258 252 249 244 243 243 245 247 247 245 243 241 240 238 237 235 233 230 228 226 224 222 220 221 223 223 222 219 216 216 219 217 212 213 215 217 219 219 219 222 224 224 224
347 348 348 349 350 351 352 353 352 351 350 354 358 1 3 5 4 2 360 358 355 353 351 348 345 341 337 334 330 326 323 320 317 313 311 311 311 311 309 302 294 285 272 262 257 255 252 247 243 239 238 239 241 241 240 240 240 239 238 236 233 231 228 226 224 222 221 222 223 222 220 218 216 217 218 217 213 213 214 216 218 219 219 221 224 226 225
348 348 348 349 350 351 353 354 353 353 354 358 1 1 3 4 3 1 358 356 355 354 352 349 347 344 340 337 334 331 329 326 323 320 319 319 319 318 313 301 291 287 280 270 266 264 261 258 254 248 241 237 236 237 237 238 240 240 241 239 236 233 229 226 224 222 221 221 223 223 222 219 219 218 218 217 215 213 213 215 216 218 219 219 221 225 224
349 349 348 348 349 350 354 354 354 356 358 359 360 1 1 360 0 0 359 357 355 355 353 351 350 347 345 342 339 337 335 333 330 328 327 329 328 324 315 304 296 295 293 282 274 271 267 262 258 254 247 238 234 234 235 236 237 239 241 241 239 235 231 229 227 223 221 221 221 223 223 221 220 219 218 218 217 215 213 214 216 218 219 218 220 225 223
351 351 351 351 349 349 353 354 355 358 359 359 358 358 358 356 357 358 359 359 357 356 355 354 353 352 349 347 345 342 340 339 337 336 336 337 336 330 322 312 305 300 295 287 280 273 266 260 255 252 247 237 233 233 234 234 233 232 234 236 237 236 233 231 229 226 222 221 221 222 222 222 220 219 218 217 217 216 215 214 216 217 219 218 220 225 223
352 352 353 354 353 351 352 354 355 356 358 357 356 355 355 354 355 357 360 1 359 358 357 357 357 355 353 351 350 348 345 345 345 346 345 346 345 342 333 323 315 307 293 284 279 273 264 255 250 249 244 235 233 232 231 231 229 226 226 227 230 233 232 231 230 228 224 221 221 222 221 222 220 218 217 217 216 216 216 215 216 217 219 219 219 224 224
353 353 353 355 355 354 353 352 352 353 355 356 354 353 353 353 354 357 360 1 0 359 359 0 0 359 357 356 355 353 350 350 354 358 358 358 359 356 347 337 328 318 300 287 282 274 265 255 247 246 239 231 232 232 228 228 226 222 221 222 224 226 226 227 228 227 224 220 219 219 220 222 220 216 215 216 216 216 216 217 216 216 218 220 220 223 222
352 353 352 353 354 355 354 352 348 347 349 352 352 351 351 352 353 356 360 1 1 360 0 2 3 3 1 360 359 357 354 354 2 10 9 8 9 6 360 352 343 334 319 305 297 286 274 262 252 248 240 231 232 232 228 226 224 221 220 220 221 221 219 220 222 223 221 219 218 218 219 221 219 216 215 216 216 216 217 219 217 215 217 219 220 223 221
351 350 349 349 350 351 352 351 347 344 343 347 350 350 351 352 352 354 359 1 0 0 2 4 6 6 5 4 3 1 358 357 3 11 8 4 6 8 4 359 354 344 334 324 312 298 286 275 266 258 249 241 238 237 233 228 223 221 221 221 220 219 217 216 217 218 218 218 218 218 218 218 216 214 214 216 216 216 217 219 218 215 216 217 219 222 219
349 346 345 344 344 346 347 348 347 343 340 341 345 348 350 352 351 353 358 0 0 1 3 6 8 9 9 9 7 5 1 359 1 4 358 355 358 3 3 1 359 355 352 348 332 303 293 290 285 275 262 252 245 243 243 238 229 222 221 222 221 219 216 215 215 215 216 217 218 219 217 215 214 213 212 213 215 216 217 218 217 216 217 217 219 221 218
348 345 343 342 342 342 344 346 347 345 341 337 338 344 350 352 351 352 356 358 0 2 4 7 10 12 13 12 10 7 4 2 1 358 353 351 352 356 359 1 2 2 0 356 344 321 306 298 289 281 276 270 263 256 252 247 238 228 222 221 221 220 217 216 215 215 215 216 218 218 215 212 213 213 210 209 213 216 217 218 218 217 217 217 218 219 216
350 348 347 346 346 345 345 347 347 345 341 337 334 337 344 350 351 352 354 357 1 3 5 9 12 14 14 14 13 11 7 4 3 359 355 354 353 353 355 360 3 3 358 350 340 323 309 304 296 287 283 278 271 261 252 248 244 234 226 221 220 220 218 216 215 214 214 215 216 215 211 209 211 213 210 208 211 214 216 217 219 218 217 217 217 218 214
355 354 353 353 352 350 350 351 350 345 339 334 333 333 338 347 350 349 352 358 2 4 8 12 14 15 16 16 16 15 11 7 5 3 2 5 4 359 357 359 2 4 2 359 350 330 322 325 328 324 312 287 276 271 259 249 247 238 229 223 219 217 216 216 214 212 212 214 215 214 210 208 210 212 210 209 212 214 214 215 217 219 219 217 217 216 212
360 359 359 357 355 354 354 354 355 353 346 338 337 336 336 343 346 347 353 1 5 7 10 13 15 17 18 17 17 17 15 11 7 6 5 9 11 8 7 7 7 8 7 3 356 348 347 355 2 3 350 295 277 279 268 248 243 238 229 224 220 216 214 215 214 211 211 213 214 213 210 209 210 210 209 209 211 215 214 213 214 217 218 217 216 214 210
3 2 1 358 356 357 357 355 357 3 3 354 347 345 346 349 350 353 359 4 6 9 12 14 17 18 19 18 17 17 17 14 10 7 5 7 10 11 15 16 13 12 10 4 4 11 21 26 25 23 17 302 268 277 278 258 243 236 229 224 221 218 214 215 215 211 209 212 214 213 210 210 210 210 208 207 209 214 215 213 213 215 216 216 215 212 209
5 5 3 1 359 359 358 356 358 6 12 7 1 2 4 4 0 360 2 3 5 9 13 15 18 19 19 18 17 17 17 16 14 10 8 10 11 11 18 21 16 15 13 10 16 37 46 41 36 35 30 353 292 300 311 297 248 223 219 219 221 220 219 217 213 210 208 209 213 214 212 210 210 211 210 207 208 212 214 213 214 216 217 217 216 212 209
6 7 7 6 4 1 359 357 359 4 9 9 8 10 11 8 3 360 359 3 8 10 13 16 18 19 19 18 17 16 16 16 15 13 11 13 13 14 20 22 17 16 17 16 25 49 54 47 41 40 38 29 15 11 6 355 304 219 213 213 214 220 223 220 214 209 206 207 211 213 211 209 209 210 211 208 208 211 213 212 213 216 218 217 215 212 209
7 9 10 9 8 6 4 3 4 6 8 9 10 11 10 6 3 0 359 7 13 12 13 16 18 18 18 18 17 17 16 15 15 14 13 15 16 18 24 22 16 16 19 22 32 49 51 46 43 43 45 46 37 29 24 24 33 95 201 209 212 217 220 219 214 208 205 206 211 213 210 209 210 210 211 210 207 208 212 212 212 214 216 215 213 210 208
9 11 12 12 12 13 13 13 14 13 14 13 12 12 10 7 6 6 7 13 16 14 14 17 18 18 18 18 18 18 17 17 16 15 15 17 18 22 27 26 20 18 20 28 42 52 48 49 52 50 50 52 52 46 38 39 52 70 99 176 212 215 216 215 211 206 203 204 208 210 209 210 211 210 210 209 207 206 210 213 213 214 215 214 212 209 207
10 12 12 12 14 17 19 20 20 19 19 18 16 14 11 9 10 14 15 16 15 13 13 15 17 18 19 19 18 19 20 20 20 19 18 18 21 25 29 29 26 23 25 34 46 51 52 57 56 45 39 42 49 58 65 59 55 65 70 73 185 177 181 195 200 199 200 201 204 207 209 210 211 211 208 206 205 205 207 210 213 214 215 213 210 209 207
10 12 12 12 13 17 19 20 21 21 22 22 21 20 18 15 16 19 18 15 14 12 11 13 17 19 20 20 20 20 21 22 23 23 22 21 23 27 29 29 26 24 27 33 38 39 42 45 37 24 21 24 29 39 57 68 72 88 102 214 201 167 160 168 180 189 197 201 203 207 208 208 210 210 206 202 202 204 205 207 209 214 216 215 211 209 207
9 10 11 11 11 14 17 18 19 20 21 23 24 24 24 23 22 22 18 15 14 13 12 15 18 20 22 23 24 23 22 23 24 26 26 25 25 26 26 26 25 24 26 27 29 31 31 27 20 13 10 12 11 11 19 35 50 86 169 206 220 204 186 179 182 191 200 206 208 209 210 209 209 207 202 198 199 202 204 205 207 211 215 215 212 209 207
8 8 9 9 9 11 13 15 16 17 18 20 22 24 25 25 25 24 21 19 18 17 16 16 19 20 22 25 27 26 24 24 26 28 28 28 28 26 25 23 21 24 27 24 22 25 24 18 12 6 4 4 2 357 357 4 11 9 222 214 221 220 208 198 196 199 206 214 216 214 211 210 208 202 196 195 197 199 200 203 205 208 212 214 212 209 207
7 6 7 7 7 8 10 12 13 14 15 16 18 20 22 23 23 23 22 21 20 19 18 17 18 19 22 25 27 27 25 26 28 28 26 27 28 28 26 23 18 13 13 12 9 8 8 6 1 358 359 0 357 352 349 347 349 358 322 224 225 222 216 211 208 209 213 220 223 221 214 208 202 196 192 192 195 196 198 201 204 205 209 212 212 210 207
7 6 5 5 6 6 8 10 11 12 12 13 14 15 17 19 19 19 20 19 19 19 19 18 18 19 20 24 26 26 26 28 28 26 25 24 25 25 25 24 22 16 10 5 355 348 349 352 349 346 349 354 353 351 347 339 333 335 326 253 229 222 220 219 216 215 218 222 226 225 217 205 197 192 190 191 192 194 197 201 203 203 207 211 212 210 207
6 6 4 4 4 5 6 8 10 10 10 11 11 11 13 15 16 16 17 17 17 19 19 19 19 19 20 23 26 26 27 28 27 26 25 25 25 26 25 24 24 23 20 17 9 353 342 339 336 335 340 349 353 352 348 337 327 320 310 288 241 218 216 218 221 219 219 223 226 223 215 205 197 193 192 192 191 192 197 200 200 201 205 210 212 211 207
3 5 4 3 3 4 5 6 8 8 9 10 11 11 11 13 14 14 14 15 15 17 17 17 18 19 20 23 26 28 28 30 31 30 30 30 30 31 32 30 29 28 28 29 29 24 11 354 340 335 340 348 354 354 352 341 327 316 308 306 302 236 216 218 225 227 223 225 227 220 211 205 199 195 195 194 191 191 195 198 197 199 205 211 213 211 207
0 2 3 2 2 3 4 5 5 5 7 9 11 12 12 13 13 13 14 14 13 14 15 15 16 17 18 21 25 28 29 31 34 35 34 34 34 34 35 35 35 33 32 32 33 34 32 25 11 355 349 351 353 356 360 355 340 324 313 306 303 269 222 219 226 234 231 229 227 217 208 205 200 197 197 194 191 191 195 197 196 198 203 209 212 211 208
358 359 0 0 360 0 2 4 3 3 4 6 9 12 13 13 13 12 13 13 12 11 12 13 13 13 15 16 20 25 26 28 31 34 34 34 34 33 33 33 34 34 34 33 34 35 35 33 29 21 12 4 359 360 0 357 350 338 322 310 302 290 241 221 223 227 229 228 224 214 206 203 198 197 198 197 193 192 194 195 196 198 203 207 210 210 207
355 357 358 358 357 358 359 0 1 1 2 4 7 11 13 13 12 12 12 12 11 10 10 10 10 10 11 12 14 17 19 20 24 27 29 29 30 30 30 30 29 30 30 31 33 34 33 33 31 29 25 22 19 18 12 359 355 349 334 319 310 305 288 243 224 220 219 220 217 206 200 200 199 197 199 200 198 195 194 195 196 199 203 206 208 209 207
353 354 355 355 355 355 356 357 358 358 360 2 4 7 9 9 10 10 10 9 9 8 6 6 6 6 6 7 10 11 11 12 15 17 20 22 24 26 27 27 26 25 25 26 28 30 31 31 30 28 26 26 24 24 29 39 34 19 358 339 330 323 313 290 248 221 211 212 210 198 190 194 200 201 199 199 200 199 198 197 198 201 205 207 207 208 207
353 353 353 353 353 352 353 354 355 355 356 359 1 2 2 4 6 8 7 5 5 5 4 2 2 1 1 3 5 5 4 6 8 9 10 13 17 19 21 23 23 22 20 20 22 25 26 26 26 26 26 25 23 21 23 29 34 38 36 18 357 341 329 315 284 237 212 205 202 195 187 189 197 202 202 199 198 200 202 202 201 202 207 212 212 211 209
354 353 352 351 351 351 351 351 351 351 353 356 357 355 354 357 1 3 2 0 0 1 1 359 358 357 358 358 358 358 360 1 2 2 3 5 9 12 14 18 19 18 17 16 17 19 21 20 20 22 22 22 21 21 20 19 20 23 28 30 21 356 340 332 312 262 227 210 198 191 190 190 194 201 206 205 202 201 203 205 204 203 204 209 214 216 215
354 354 352 351 350 349 349 348 349 349 350 352 352 350 349 350 354 357 356 354 354 356 355 354 354 354 355 353 351 353 357 357 356 357 358 1 5 6 8 11 13 12 13 13 13 14 15 14 14 16 17 17 17 17 17 17 16 14 14 19 23 16 0 350 342 311 252 226 208 193 189 189 191 197 206 210 210 209 208 207 206 206 205 205 207 212 217
354 354 353 351 350 350 348 347 348 348 347 348 348 346 345 346 348 350 349 347 348 349 349 348 349 350 350 349 347 348 350 352 353 355 357 358 360 2 4 5 6 5 7 9 8 7 8 7 6 7 9 9 9 9 9 11 13 12 8 10 15 20 19 13 9 3 317 246 223 206 193 186 184 189 198 206 212 215 215 211 209 209 210 210 209 210 214
354 353 353 352 351 351 349 349 350 349 348 347 345 343 343 343 343 343 343 342 342 342 343 343 344 344 345 346 344 341 343 347 350 353 355 355 355 356 357 358 359 0 2 2 2 1 360 358 357 357 357 356 356 357 357 360 3 5 5 5 6 10 15 22 30 30 359 276 236 217 205 195 186 184 189 197 205 210 215 216 215 215 216 217 217 216 217
354 354 354 353 352 352 352 352 353 352 350 348 346 344 342 341 339 339 339 337 336 336 337 338 339 340 341 342 341 338 338 340 342 345 349 350 349 350 351 352 353 356 357 356 356 356 355 352 352 351 347 343 342 343 345 348 351 354 357 360 1 1 2 6 18 34 22 292 248 225 214 207 199 191 187 189 195 202 208 214 218 220 222 224 225 228 229
356 356 356 355 354 354 353 353 354 354 353 351 349 346 343 340 338 337 336 333 332 332 332 332 334 337 338 339 338 334 331 331 334 337 338 339 342 346 347 346 347 350 351 349 348 349 351 351 349 344 337 333 334 336 338 341 341 341 344 350 352 353 354 355 358 9 25 357 246 231 221 214 210 203 195 190 190 194 200 207 213 219 222 225 228 232 236
358 357 357 357 356 355 354 352 353 353 352 351 350 347 344 341 338 334 332 330 329 329 330 330 331 334 334 334 333 330 325 325 329 331 330 331 335 339 341 341 342 345 346 343 341 343 345 346 342 336 332 330 331 333 337 339 337 333 334 337 340 342 344 346 346 350 360 10 236 223 223 220 216 210 205 200 196 194 195 199 204 209 214 219 224 229 234
360 358 358 357 357 355 354 352 351 350 350 349 348 346 345 342 338 334 333 333 332 331 332 332 331 330 330 329 327 325 322 321 322 322 322 324 326 330 334 338 340 341 340 339 337 338 339 338 335 332 332 332 330 329 331 335 334 330 327 327 327 328 329 331 335 339 342 341 307 224 219 224 223 217 211 207 205 202 199 198 198 200 201 204 210 216 224
358 357 356 356 356 354 353 352 351 350 349 347 347 347 346 344 343 342 343 344 344 341 338 336 334 331 328 326 324 321 319 319 318 316 316 317 319 324 331 336 337 337 337 337 335 334 333 331 330 331 332 331 329 327 327 328 328 327 323 319 317 317 317 318 321 326 329 330 320 268 218 213 220 222 219 214 211 210 208 207 205 204 202 199 198 201 208
354 353 353 353 353 353 352 351 351 351 350 348 347 348 347 346 346 345 343 342 343 341 337 335 336 333 329 326 322 318 319 321 320 316 314 314 316 321 328 332 333 334 334 334 331 329 327 327 327 328 329 329 327 325 325 325 323 321 318 314 310 309 309 308 307 310 314 317 317 304 257 219 209 213 219 221 218 214 214 214 215 213 212 209 205 202 203
351 350 350 350 350 350 351 350 349 349 351 351 350 348 347 345 343 340 337 338 340 339 333 330 330 329 327 326 322 320 322 326 324 318 314 313 315 320 325 329 331 332 330 328 326 325 325 325 325 326 327 327 326 325 326 325 321 319 317 312 305 300 299 299 297 295 297 301 303 303 292 257 225 210 209 216 220 218 216 215 216 217 218 217 214 212 211
348 348 348 349 349 349 349 350 348 347 349 351 350 348 348 346 342 339 338 339 340 338 337 338 337 333 330 329 327 324 325 326 323 318 314 313 315 319 325 330 331 329 326 324 323 323 323 324 325 326 328 329 328 329 329 327 324 321 319 316 310 301 295 292 290 285 283 286 289 290 286 273 251 227 213 211 216 220 220 217 216 215 217 218 218 217 216
345 347 347 348 348 348 348 349 348 347 347 347 346 348 349 347 341 339 340 339 337 337 342 346 345 341 337 334 331 327 325 323 321 317 311 308 312 319 326 330 330 326 323 322 324 324 324 325 327 330 333 333 331 329 328 326 324 323 322 321 319 313 305 297 291 283 276 273 276 279 277 270 258 244 228 217 214 217 219 220 219 217 216 216 218 219 219
345 347 348 347 347 347 347 346 347 347 346 344 342 344 346 344 339 338 339 339 337 337 340 341 340 339 336 332 330 329 327 324 321 316 308 306 314 323 327 330 330 326 322 322 324 322 320 323 330 334 336 334 330 326 323 321 320 320 320 321 322 321 317 311 303 294 282 273 268 268 270 267 259 251 240 228 221 219 217 217 218 219 218 217 217 218 219
346 347 348 347 347 347 346 345 345 345 344 343 342 342 342 340 337 336 336 336 336 337 337 337 338 339 336 331 330 331 331 327 323 317 310 312 321 327 329 330 331 327 322 321 322 319 317 323 333 337 335 330 325 320 316 313 312 313 314 316 317 318 318 318 315 308 297 283 272 265 264 263 259 253 246 237 229 224 220 217 216 216 217 217 217 218 219
346 347 348 347 346 345 344 344 343 342 341 342 342 340 338 337 335 333 333 334 335 336 336 336 338 339 338 334 332 332 330 326 321 315 314 319 326 329 330 329 328 324 319 318 317 313 314 323 333 336 333 328 323 317 311 306 304 304 305 307 309 310 311 311 312 309 304 296 284 271 263 259 257 253 248 242 236 231 226 221 216 214 214 215 216 217 218
345 346 347 347 345 344 342 342 341 340 339 340 340 338 337 336 335 333 333 333 334 334 334 335 336 337 337 332 328 326 325 321 316 315 316 319 322 323 323 322 320 318 318 317 313 306 308 320 329 332 331 329 325 322 319 315 309 305 302 300 299 300 301 301 302 301 299 297 292 283 270 260 254 250 247 243 238 235 233 229 224 219 215 214 214 215 216
Height
5759 5756 5753 5750 5747 5744 5741 5739 5737 5734 5732 5729 5727 5725 5723 5721 5719 5718 5716 5715 5714 5712 5710 5709 5707 5705 5703 5701 5698 5696 5694 5692 5689 5688 5686 5684 5682 5680 5677 5676 5674 5673 5673 5672 5671 5672 5671 5672 5674 5674 5674 5675 5678 5683 5686 5688 5691 5694 5696 5698 5703 5709 5713 5716 5721 5723 5726 5729 5732 5735 5740 5744 5749 5754 5759 5762 5766 5771 5775 5779 5784 5788 5792 5796 5797 5799 5805
5757 5754 5751 5748 5745 5742 5739 5737 5735 5733 5731 5728 5726 5724 5722 5720 5718 5717 5715 5714 5712 5710 5708 5706 5704 5702 5700 5698 5695 5693 5690 5688 5685 5683 5681 5678 5675 5672 5669 5668 5666 5665 5664 5664 5664 5663 5663 5664 5666 5667 5667 5667 5670 5674 5676 5679 5682 5684 5687 5690 5696 5702 5706 5709 5714 5717 5720 5724 5727 5728 5732 5736 5742 5749 5752 5753 5757 5762 5766 5771 5776 5781 5786 5790 5792 5795 5801
5756 5753 5750 5747 5744 5741 5738 5736 5733 5731 5729 5727 5725 5723 5721 5720 5718 5716 5714 5712 5711 5709 5707 5704 5702 5700 5697 5695 5692 5690 5687 5684 5681 5678 5675 5672 5668 5665 5662 5660 5659 5657 5656 5656 5656 5655 5656 5657 5658 5660 5660 5660 5662 5666 5668 5671 5673 5675 5679 5683 5689 5694 5696 5700 5706 5709 5714 5717 5718 5721 5726 5730 5736 5742 5743 5746 5751 5755 5761 5768 5772 5775 5780 5784 5787 5791 5798
5754 5751 5748 5745 5742 5740 5737 5734 5732 5730 5728 5726 5724 5722 5720 5719 5717 5715 5713 5711 5709 5707 5705 5702 5700 5697 5695 5692 5689 5686 5683 5680 5677 5673 5670 5666 5662 5659 5656 5654 5653 5652 5650 5650 5650 5649 5650 5651 5652 5653 5654 5654 5656 5658 5661 5663 5665 5668 5672 5675 5680 5684 5687 5693 5698 5702 5707 5709 5710 5713 5718 5723 5728 5731 5733 5739 5746 5750 5756 5761 5764 5770 5777 5779 5782 5787 5793
5753 5750 5747 5744 5741 5739 5736 5734 5731 5729 5727 5725 5723 5721 5719 5718 5716 5714 5711 5709 5707 5705 5702 5700 5697 5695 5692 5689 5686 5683 5680 5676 5673 5669 5665 5661 5657 5655 5652 5650 5648 5648 5647 5646 5646 5646 5647 5647 5648 5649 5649 5650 5651 5653 5656 5657 5659 5662 5664 5667 5672 5676 5680 5687 5691 5695 5700 5702 5704 5707 5711 5715 5720 5722 5725 5732 5739 5744 5749 5753 5758 5764 5769 5772 5777 5781 5786
5752 5749 5746 5743 5741 5738 5735 5733 5730 5728 5726 5724 5722 5720 5718 5716 5715 5713 5710 5708 5705 5703 5700 5698 5695 5693 5690 5686 5683 5680 5676 5673 5669 5664 5660 5657 5654 5651 5649 5647 5646 5645 5645 5644 5644 5644 5644 5644 5645 5645 5645 5647 5648 5650 5651 5652 5654 5657 5659 5661 5665 5668 5674 5679 5682 5687 5691 5694 5698 5701 5705 5710 5713 5716 5721 5727 5733 5738 5742 5747 5753 5757 5759 5767 5773 5773 5779
5751 5748 5745 5742 5740 5737 5734 5732 5730 5727 5725 5723 5721 5719 5717 5716 5714 5712 5709 5707 5704 5701 5699 5696 5693 5690 5687 5684 5680 5677 5673 5669 5665 5661 5657 5653 5651 5649 5647 5645 5645 5644 5643 5642 5642 5642 5642 5641 5642 5642 5642 5643 5645 5646 5647 5649 5651 5653 5655 5656 5659 5663 5668 5672 5674 5678 5683 5688 5693 5696 5699 5704 5707 5711 5717 5722 5727 5732 5737 5741 5745 5749 5753 5762 5767 5766 5774
5750 5747 5744 5741 5739 5736 5734 5731 5729 5726 5724 5722 5720 5719 5717 5715 5713 5711 5708 5706 5703 5700 5697 5694 5691 5688 5684 5681 5677 5674 5670 5666 5662 5657 5654 5651 5649 5647 5645 5644 5643 5642 5641 5641 5640 5640 5640 5639 5639 5640 5640 5641 5642 5643 5644 5646 5648 5650 5651 5652 5654 5657 5661 5663 5666 5670 5677 5683 5688 5690 5694 5698 5702 5706 5710 5715 5720 5726 5731 5735 5740 5744 5749 5756 5761 5762 5770
5749 5747 5744 5741 5738 5735 5732 5730 5728 5726 5723 5722 5720 5718 5716 5714 5712 5709 5707 5704 5701 5699 5696 5692 5689 5685 5682 5679 5675 5671 5667 5663 5659 5656 5652 5650 5648 5646 5645 5643 5642 5641 5640 5639 5639 5639 5638 5638 5638 5638 5638 5638 5639 5640 5641 5642 5644 5646 5647 5649 5650 5652 5655 5657 5660 5664 5672 5679 5682 5685 5689 5692 5695 5699 5703 5708 5714 5720 5726 5731 5735 5740 5744 5750 5756 5758 5766
5748 5746 5743 5740 5737 5734 5732 5729 5727 5725 5723 5721 5719 5717 5715 5713 5711 5708 5706 5703 5700 5697 5694 5691 5687 5684 5680 5676 5673 5669 5665 5661 5658 5655 5652 5650 5648 5646 5644 5642 5641 5640 5639 5638 5638 5637 5637 5637 5636 5636 5636 5637 5637 5637 5638 5639 5641 5642 5644 5646 5647 5649 5651 5653 5656 5659 5666 5672 5675 5679 5684 5685 5686 5692 5699 5705 5710 5716 5723 5727 5730 5735 5740 5746 5751 5753 5762
5747 5745 5742 5739 5736 5733 5731 5728 5726 5724 5722 5720 5718 5716 5714 5712 5709 5707 5705 5702 5699 5696 5693 5689 5686 5682 5678 5674 5671 5667 5663 5660 5657 5655 5652 5650 5647 5645 5643 5642 5640 5639 5638 5637 5637 5636 5636 5636 5635 5635 5635 5635 5635 5635 5636 5636 5638 5639 5641 5642 5644 5645 5648 5650 5652 5655 5660 5664 5669 5673 5676 5676 5682 5692 5700 5703 5707 5713 5719 5721 5724 5730 5736 5741 5746 5748 5758
5746 5744 5741 5738 5735 5732 5730 5727 5725 5723 5720 5718 5716 5714 5712 5710 5708 5706 5704 5701 5698 5695 5692 5688 5684 5680 5677 5673 5669 5665 5661 5658 5656 5654 5652 5650 5647 5645 5643 5641 5639 5638 5637 5636 5635 5635 5634 5634 5634 5633 5633 5633 5633 5633 5634 5634 5635 5636 5637 5639 5640 5642 5645 5647 5649 5652 5655 5659 5663 5666 5667 5673 5684 5694 5699 5702 5705 5710 5712 5713 5717 5724 5730 5736 5740 5744 5753
5745 5743 5740 5737 5734 5731 5728 5726 5723 5721 5719 5717 5715 5713 5711 5709 5707 5705 5702 5700 5697 5694 5690 5687 5683 5679 5675 5671 5667 5664 5660 5657 5655 5654 5652 5650 5647 5645 5643 5641 5639 5638 5636 5635 5634 5634 5633 5632 5631 5631 5631 5631 5631 5631 5631 5632 5632 5633 5634 5635 5637 5639 5642 5644 5646 5648 5652 5655 5658 5661 5667 5677 5685 5690 5693 5698 5701 5702 5702 5705 5712 5720 5726 5731 5735 5740 5750
5744 5741 5738 5735 5732 5729 5727 5724 5722 5720 5718 5716 5714 5712 5710 5708 5706 5704 5701 5699 5696 5693 5689 5686 5682 5677 5673 5670 5666 5663 5659 5656 5654 5653 5651 5649 5647 5645 5643 5641 5639 5637 5635 5634 5633 5632 5631 5630 5629 5628 5628 5627 5627 5627 5628 5628 5628 5629 5630 5631 5633 5636 5638 5641 5643 5645 5649 5652 5655 5660 5668 5675 5679 5681 5685 5691 5693 5693 5697 5702 5709 5716 5721 5727 5732 5737 5747
5743 5740 5737 5733 5731 5728 5725 5723 5720 5718 5716 5714 5712 5710 5708 5707 5705 5703 5700 5697 5695 5692 5689 5685 5681 5676 5673 5669 5665 5662 5658 5655 5653 5651 5650 5649 5647 5645 5643 5641 5639 5637 5635 5633 5632 5631 5630 5629 5627 5626 5625 5624 5623 5623 5623 5623 5624 5624 5626 5627 5630 5632 5635 5638 5640 5642 5646 5648 5652 5657 5662 5667 5671 5674 5679 5684 5686 5689 5695 5700 5706 5712 5718 5723 5728 5734 5744
5742 5739 5736 5732 5729 5727 5724 5722 5719 5716 5713 5711 5710 5708 5707 5705 5703 5701 5699 5696 5694 5691 5687 5684 5680 5676 5672 5668 5665 5661 5658 5655 5652 5650 5649 5648 5647 5645 5643 5641 5639 5637 5634 5632 5631 5630 5629 5627 5625 5624 5623 5622 5620 5619 5619 5619 5620 5620 5621 5623 5625 5627 5630 5633 5635 5638 5641 5645 5649 5653 5659 5664 5668 5671 5675 5680 5683 5687 5692 5697 5702 5708 5714 5719 5725 5732 5742
5742 5738 5735 5732 5729 5726 5724 5721 5718 5714 5712 5710 5708 5707 5705 5703 5702 5700 5698 5695 5693 5690 5687 5683 5680 5676 5672 5668 5665 5661 5658 5655 5653 5650 5648 5647 5646 5645 5643 5641 5639 5636 5633 5632 5630 5629 5628 5626 5624 5623 5621 5618 5616 5615 5615 5615 5616 5616 5617 5619 5620 5623 5626 5629 5631 5634 5638 5642 5646 5650 5655 5660 5663 5666 5672 5677 5680 5684 5688 5692 5697 5704 5710 5716 5723 5730 5739
5741 5738 5735 5732 5729 5726 5723 5720 5717 5714 5711 5709 5708 5706 5704 5702 5700 5699 5697 5694 5692 5690 5686 5683 5679 5676 5672 5668 5665 5661 5658 5655 5652 5650 5648 5647 5645 5644 5643 5641 5639 5636 5633 5631 5630 5628 5627 5625 5623 5622 5619 5616 5614 5612 5611 5611 5612 5613 5614 5615 5617 5620 5622 5625 5627 5631 5636 5639 5643 5647 5651 5654 5658 5662 5667 5672 5676 5679 5681 5686 5693 5701 5707 5712 5720 5728 5735
5741 5738 5735 5732 5729 5726 5723 5720 5717 5714 5712 5709 5707 5705 5703 5701 5700 5698 5696 5694 5692 5689 5686 5683 5679 5676 5672 5668 5665 5661 5658 5655 5653 5650 5648 5647 5645 5644 5642 5641 5638 5636 5634 5631 5629 5628 5627 5625 5623 5621 5618 5615 5613 5611 5610 5609 5609 5610 5611 5613 5615 5617 5619 5621 5624 5629 5633 5637 5640 5643 5647 5651 5656 5661 5665 5668 5671 5674 5677 5683 5691 5698 5703 5710 5717 5725 5731
5742 5738 5735 5732 5729 5726 5723 5720 5717 5715 5712 5710 5708 5705 5703 5701 5699 5698 5696 5693 5691 5689 5686 5682 5679 5676 5673 5669 5665 5662 5659 5656 5653 5651 5648 5646 5645 5643 5642 5640 5638 5636 5634 5632 5630 5629 5627 5625 5623 5620 5618 5615 5613 5612 5610 5609 5608 5608 5609 5611 5613 5615 5617 5618 5622 5626 5630 5633 5635 5639 5644 5650 5654 5658 5661 5664 5666 5670 5676 5682 5688 5694 5700 5707 5714 5721 5727
5742 5739 5735 5732 5729 5726 5723 5720 5718 5715 5712 5710 5708 5706 5703 5701 5699 5697 5695 5693 5691 5688 5685 5682 5679 5676 5673 5670 5666 5663 5659 5656 5653 5651 5648 5646 5645 5643 5641 5640 5639 5636 5634 5632 5631 5629 5628 5626 5624 5621 5619 5616 5614 5612 5611 5610 5608 5608 5609 5610 5612 5613 5614 5616 5620 5624 5627 5631 5634 5639 5644 5647 5650 5653 5657 5660 5664 5669 5674 5680 5685 5691 5697 5704 5712 5718 5723
5742 5739 5736 5733 5730 5727 5724 5721 5718 5715 5712 5710 5708 5705 5703 5701 5699 5697 5695 5693 5691 5688 5685 5682 5680 5677 5674 5670 5667 5664 5660 5657 5654 5651 5649 5646 5645 5643 5641 5640 5639 5636 5635 5633 5631 5630 5628 5626 5625 5623 5621 5618 5616 5614 5612 5611 5610 5610 5610 5610 5611 5612 5613 5616 5619 5622 5625 5629 5633 5637 5640 5643 5646 5650 5653 5657 5662 5667 5671 5676 5682 5688 5694 5701 5709 5714 5719
5743 5740 5737 5734 5732 5729 5725 5722 5719 5716 5713 5710 5708 5705 5703 5701 5699 5697 5695 5693 5691 5688 5686 5683 5680 5678 5675 5671 5668 5665 5662 5658 5655 5653 5650 5647 5645 5643 5642 5640 5639 5637 5635 5634 5632 5630 5629 5627 5626 5624 5622 5621 5618 5616 5614 5613 5612 5612 5611 5611 5612 5612 5614 5616 5618 5621 5624 5627 5630 5633 5636 5639 5643 5647 5650 5654 5658 5663 5667 5672 5679 5685 5691 5698 5705 5711 5716
5743 5740 5738 5735 5733 5730 5726 5723 5720 5717 5714 5711 5709 5706 5704 5701 5699 5697 5695 5694 5691 5689 5686 5683 5681 5678 5675 5672 5669 5666 5663 5660 5657 5654 5651 5649 5646 5644 5642 5640 5639 5637 5636 5634 5633 5631 5630 5628 5627 5626 5624 5622 5620 5619 5617 5615 5614 5614 5613 5613 5613 5614 5615 5616 5618 5620 5622 5624 5626 5629 5632 5636 5639 5643 5647 5650 5654 5658 5663 5670 5677 5683 5688 5696 5703 5708 5713
5743 5741 5738 5736 5733 5730 5727 5724 5721 5719 5716 5713 5710 5708 5705 5702 5700 5698 5696 5694 5692 5689 5686 5684 5681 5679 5677 5674 5671 5667 5664 5661 5658 5656 5653 5650 5648 5645 5643 5642 5640 5638 5636 5635 5634 5632 5631 5629 5628 5626 5625 5623 5621 5620 5618 5617 5616 5615 5615 5615 5615 5615 5616 5617 5618 5620 5621 5622 5624 5627 5630 5634 5637 5639 5643 5646 5651 5656 5661 5668 5675 5681 5686 5693 5700 5706 5711
5744 5741 5739 5736 5734 5731 5728 5725 5723 5720 5717 5714 5712 5709 5707 5704 5702 5699 5697 5695 5692 5690 5687 5685 5682 5680 5678 5675 5671 5668 5665 5663 5660 5657 5655 5652 5649 5647 5645 5643 5641 5640 5638 5637 5635 5633 5631 5629 5628 5627 5625 5624 5622 5620 5619 5618 5617 5616 5616 5616 5616 5616 5617 5617 5618 5619 5620 5621 5622 5625 5628 5631 5633 5636 5639 5644 5649 5654 5660 5666 5673 5679 5685 5690 5697 5702 5708
5744 5741 5739 5737 5734 5732 5729 5726 5724 5721 5718 5716 5713 5711 5708 5705 5703 5701 5698 5696 5693 5691 5688 5686 5683 5681 5678 5675 5672 5670 5667 5665 5662 5659 5657 5654 5651 5649 5647 5645 5643 5641 5639 5637 5635 5633 5632 5630 5628 5627 5626 5624 5623 5621 5619 5618 5617 5617 5616 5616 5616 5616 5616 5617 5617 5618 5619 5620 5621 5623 5625 5628 5630 5634 5638 5643 5647 5653 5658 5664 5670 5677 5682 5687 5693 5699 5705
5744 5742 5739 5737 5735 5732 5730 5727 5724 5722 5719 5717 5714 5712 5709 5707 5704 5702 5699 5697 5694 5692 5689 5686 5684 5681 5679 5676 5674 5671 5669 5666 5664 5661 5659 5656 5653 5650 5648 5646 5644 5641 5639 5637 5636 5634 5632 5631 5629 5627 5626 5625 5623 5621 5619 5618 5617 5616 5616 5616 5616 5615 5616 5616 5617 5617 5618 5619 5620 5622 5624 5626 5629 5633 5637 5641 5646 5651 5657 5662 5668 5674 5680 5685 5690 5696 5702
5744 5741 5739 5737 5735 5732 5730 5727 5725 5722 5720 5717 5715 5712 5710 5707 5705 5702 5700 5698 5695 5693 5690 5687 5685 5682 5680 5678 5675 5672 5670 5668 5666 5663 5660 5658 5655 5653 5650 5647 5645 5643 5641 5638 5636 5634 5632 5630 5629 5627 5626 5624 5623 5621 5620 5618 5617 5616 5615 5615 5615 5614 5615 5615 5616 5616 5617 5618 5620 5622 5624 5626 5629 5632 5636 5640 5644 5649 5654 5660 5666 5672 5678 5683 5688 5693 5699
5743 5741 5739 5737 5735 5733 5730 5728 5725 5723 5720 5718 5715 5713 5710 5708 5705 5703 5701 5698 5696 5693 5691 5688 5686 5683 5681 5679 5676 5674 5672 5669 5667 5665 5662 5660 5657 5655 5652 5650 5647 5645 5643 5640 5637 5634 5632 5631 5629 5627 5625 5624 5622 5621 5620 5618 5617 5616 5615 5614 5614 5614 5614 5615 5615 5616 5617 5617 5619 5621 5623 5625 5628 5631 5634 5638 5642 5647 5652 5658 5664 5670 5676 5681 5686 5691 5696
5743 5741 5739 5737 5735 5733 5730 5728 5725 5723 5720 5718 5716 5713 5710 5708 5706 5703 5701 5699 5696 5694 5692 5689 5687 5684 5682 5680 5677 5675 5673 5671 5669 5667 5665 5662 5659 5657 5654 5652 5649 5647 5644 5641 5638 5636 5634 5632 5630 5628 5626 5624 5623 5621 5620 5619 5617 5616 5615 5614 5614 5614 5614 5614 5615 5616 5616 5617 5618 5620 5622 5624 5627 5630 5633 5637 5641 5645 5651 5657 5662 5668 5673 5678 5683 5688 5693
5742 5740 5738 5736 5734 5732 5730 5728 5726 5723 5721 5718 5716 5713 5711 5708 5706 5703 5701 5699 5697 5694 5692 5690 5688 5685 5683 5681 5678 5676 5674 5672 5670 5668 5666 5663 5661 5658 5656 5653 5651 5648 5646 5643 5640 5638 5636 5634 5632 5630 5628 5626 5624 5622 5621 5619 5618 5617 5616 5615 5614 5614 5613 5614 5614 5615 5615 5616 5617 5619 5621 5623 5626 5629 5632 5636 5639 5644 5649 5654 5660 5665 5670 5675 5679 5684 5689
5742 5740 5738 5736 5734 5732 5730 5727 5725 5723 5721 5718 5716 5713 5711 5708 5706 5703 5701 5699 5697 5694 5692 5690 5688 5686 5684 5682 5679 5677 5675 5673 5671 5669 5667 5665 5662 5660 5657 5655 5652 5650 5648 5645 5643 5640 5638 5637 5634 5632 5630 5628 5626 5624 5623 5621 5620 5618 5617 5616 5615 5614 5613 5613 5613 5613 5614 5615 5616 5618 5620 5622 5625 5628 5631 5635 5638 5642 5647 5652 5657 5662 5667 5671 5676 5680 5684
5741 5739 5737 5735 5733 5731 5729 5727 5725 5722 5720 5718 5715 5713 5710 5708 5706 5703 5701 5699 5696 5694 5692 5690 5688 5686 5684 5682 5680 5677 5675 5673 5671 5669 5667 5665 5663 5661 5659 5656 5654 5651 5649 5647 5645 5643 5641 5638 5636 5634 5633 5630 5628 5626 5624 5622 5621 5619 5618 5616 5615 5614 5614 5613 5613 5613 5613 5614 5615 5617 5619 5622 5625 5627 5630 5634 5638 5642 5646 5650 5654 5659 5663 5668 5671 5675 5680
5740 5738 5736 5734 5732 5730 5728 5726 5724 5721 5719 5717 5714 5712 5710 5708 5706 5703 5701 5699 5696 5694 5692 5690 5688 5686 5684 5682 5680 5678 5676 5673 5671 5669 5667 5665 5663 5661 5659 5657 5655 5653 5651 5649 5647 5645 5642 5640 5639 5637 5634 5632 5630 5628 5626 5623 5622 5620 5619 5617 5616 5615 5614 5614 5613 5613 5613 5614 5615 5616 5618 5621 5624 5627 5629 5632 5636 5640 5644 5648 5652 5657 5661 5665 5669 5673 5676
5740 5737 5735 5734 5731 5729 5727 5725 5723 5721 5718 5716 5714 5712 5710 5707 5705 5702 5700 5698 5696 5694 5692 5690 5688 5686 5684 5682 5680 5678 5675 5673 5671 5669 5667 5665 5663 5661 5660 5658 5656 5654 5652 5650 5648 5646 5644 5643 5641 5639 5636 5634 5632 5630 5627 5625 5623 5622 5620 5618 5617 5616 5615 5614 5614 5613 5613 5613 5614 5615 5617 5620 5623 5625 5628 5630 5633 5637 5641 5644 5649 5654 5658 5663 5667 5671 5674
5739 5737 5735 5733 5731 5728 5726 5724 5722 5720 5717 5715 5713 5711 5709 5706 5704 5702 5700 5698 5696 5694 5692 5690 5688 5685 5683 5681 5679 5677 5675 5672 5670 5669 5667 5665 5663 5662 5660 5658 5656 5655 5653 5651 5649 5647 5645 5643 5642 5640 5638 5636 5633 5631 5629 5628 5625 5623 5621 5619 5618 5616 5615 5615 5614 5614 5614 5614 5614 5615 5617 5619 5622 5624 5627 5629 5632 5635 5638 5642 5646 5651 5654 5658 5662 5666 5669
5738 5736 5734 5732 5730 5728 5726 5723 5721 5719 5716 5714 5712 5710 5708 5706 5703 5701 5699 5697 5695 5693 5691 5689 5687 5685 5683 5681 5679 5676 5674 5673 5671 5669 5667 5665 5663 5661 5659 5657 5656 5654 5652 5651 5649 5647 5645 5644 5642 5640 5638 5636 5634 5633 5631 5629 5627 5625 5623 5621 5619 5618 5617 5616 5615 5615 5615 5615 5615 5616 5617 5618 5620 5623 5625 5628 5631 5634 5637 5640 5644 5648 5651 5654 5657 5660 5663
5737 5735 5733 5731 5729 5727 5725 5723 5720 5718 5715 5713 5711 5709 5707 5705 5702 5700 5698 5696 5694 5692 5690 5688 5686 5684 5682 5680 5678 5676 5674 5673 5671 5669 5667 5665 5663 5661 5660 5658 5656 5654 5652 5650 5649 5647 5646 5644 5642 5640 5637 5636 5635 5633 5632 5630 5628 5626 5625 5622 5621 5619 5618 5617 5616 5616 5616 5616 5616 5616 5617 5618 5619 5621 5624 5626 5629 5632 5635 5639 5642 5645 5648 5651 5654 5657 5660
5737 5735 5733 5730 5728 5726 5724 5722 5720 5717 5715 5713 5710 5708 5706 5703 5701 5699 5697 5695 5693 5691 5689 5687 5685 5684 5682 5680 5678 5675 5673 5672 5671 5669 5667 5665 5663 5661 5660 5658 5655 5653 5651 5650 5649 5647 5645 5644 5642 5640 5637 5636 5634 5633 5631 5630 5628 5627 5625 5623 5622 5620 5619 5618 5617 5617 5616 5616 5616 5616 5617 5618 5619 5620 5622 5624 5627 5630 5633 5636 5639 5643 5646 5649 5652 5654 5657
5736 5734 5732 5730 5727 5726 5723 5721 5719 5717 5714 5712 5710 5707 5705 5702 5700 5698 5696 5694 5692 5690 5687 5686 5684 5682 5680 5678 5677 5675 5672 5671 5669 5667 5665 5664 5662 5660 5659 5657 5655 5652 5650 5649 5647 5646 5644 5642 5640 5639 5637 5636 5634 5632 5630 5629 5627 5626 5625 5624 5622 5621 5620 5619 5618 5617 5616 5616 5616 5617 5617 5618 5619 5620 5621 5623 5625 5627 5630 5633 5637 5640 5643 5646 5649 5651 5654
5736 5733 5731 5729 5727 5725 5723 5721 5718 5716 5714 5712 5709 5707 5704 5702 5699 5696 5694 5692 5690 5688 5686 5684 5682 5680 5678 5677 5675 5674 5672 5669 5667 5665 5663 5662 5660 5659 5657 5656 5654 5651 5649 5647 5645 5644 5642 5640 5638 5637 5636 5634 5632 5630 5629 5628 5626 5625 5624 5623 5622 5621 5620 5619 5618 5617 5617 5616 5616 5616 5616 5617 5618 5619 5620 5621 5623 5625 5628 5630 5633 5636 5639 5642 5645 5647 5650
5735 5733 5731 5729 5726 5724 5722 5720 5717 5715 5713 5710 5708 5706 5703 5700 5698 5695 5693 5691 5689 5687 5684 5682 5680 5678 5676 5675 5673 5672 5670 5668 5666 5664 5662 5660 5658 5656 5655 5653 5651 5650 5648 5646 5643 5641 5640 5638 5637 5635 5633 5632 5630 5628 5627 5626 5625 5624 5622 5622 5621 5621 5620 5618 5617 5617 5616 5616 5616 5615 5616 5616 5617 5617 5619 5620 5621 5623 5625 5628 5630 5633 5636 5638 5641 5643 5646
5735 5733 5730 5728 5726 5724 5721 5719 5716 5714 5711 5709 5707 5704 5702 5699 5696 5694 5692 5689 5687 5684 5682 5680 5678 5676 5674 5672 5670 5669 5667 5665 5663 5661 5660 5658 5656 5654 5652 5651 5649 5647 5646 5643 5641 5639 5638 5636 5634 5632 5631 5629 5627 5625 5624 5623 5622 5622 5621 5620 5619 5619 5619 5618 5617 5616 5616 5615 5615 5615 5615 5615 5616 5616 5617 5618 5620 5621 5623 5625 5627 5630 5632 5635 5637 5640 5642
5734 5732 5729 5727 5725 5723 5720 5718 5715 5713 5710 5708 5705 5703 5700 5697 5695 5693 5690 5687 5684 5682 5680 5678 5676 5674 5672 5670 5667 5665 5664 5662 5660 5658 5657 5655 5654 5652 5650 5649 5647 5645 5643 5641 5640 5638 5636 5633 5632 5630 5628 5627 5625 5623 5621 5620 5619 5619 5619 5618 5617 5617 5617 5616 5616 5615 5614 5614 5614 5614 5614 5614 5614 5615 5615 5616 5617 5619 5620 5622 5624 5626 5629 5631 5634 5637 5639
5733 5731 5729 5726 5724 5721 5719 5716 5714 5711 5709 5707 5704 5702 5699 5696 5693 5690 5688 5685 5682 5680 5678 5676 5673 5671 5669 5667 5665 5663 5661 5659 5658 5656 5654 5652 5651 5650 5648 5646 5645 5643 5641 5639 5637 5635 5633 5631 5629 5627 5626 5624 5622 5621 5620 5618 5617 5616 5616 5615 5615 5614 5614 5614 5614 5613 5613 5613 5613 5613 5613 5613 5613 5613 5614 5614 5615 5616 5618 5619 5621 5623 5625 5628 5630 5633 5636
5732 5730 5728 5725 5723 5720 5718 5715 5713 5710 5708 5706 5704 5701 5698 5695 5692 5689 5686 5684 5682 5680 5677 5674 5671 5669 5667 5665 5663 5661 5659 5657 5655 5653 5651 5649 5648 5647 5645 5644 5642 5640 5638 5636 5634 5631 5629 5628 5627 5625 5623 5622 5620 5618 5617 5616 5615 5614 5613 5612 5612 5612 5612 5612 5611 5611 5611 5611 5611 5611 5611 5612 5612 5612 5612 5613 5613 5614 5615 5617 5618 5620 5622 5624 5626 5629 5631
5731 5729 5727 5724 5722 5719 5717 5715 5712 5710 5707 5705 5702 5700 5697 5694 5691 5688 5685 5683 5680 5678 5675 5672 5669 5667 5665 5663 5661 5659 5657 5654 5652 5650 5648 5647 5645 5644 5642 5641 5640 5637 5635 5633 5631 5629 5627 5626 5624 5623 5621 5619 5617 5616 5615 5614 5612 5611 5611 5610 5609 5609 5609 5609 5609 5608 5609 5609 5609 5609 5609 5610 5610 5611 5611 5611 5612 5612 5613 5614 5616 5617 5619 5621 5623 5625 5627
5730 5728 5726 5723 5721 5719 5716 5714 5712 5709 5706 5704 5701 5698 5696 5693 5690 5686 5683 5681 5678 5675 5673 5670 5668 5665 5663 5661 5659 5657 5655 5652 5650 5647 5645 5644 5642 5640 5639 5637 5636 5634 5632 5630 5629 5627 5625 5624 5622 5621 5619 5617 5615 5613 5612 5611 5609 5609 5608 5608 5607 5607 5606 5606 5606 5605 5606 5606 5607 5606 5607 5607 5608 5609 5609 5609 5610 5611 5611 5612 5613 5614 5616 5617 5619 5621 5623
5729 5727 5725 5722 5720 5718 5716 5713 5711 5708 5706 5703 5700 5697 5694 5691 5687 5683 5681 5678 5676 5672 5670 5667 5665 5663 5660 5658 5656 5654 5652 5650 5647 5645 5643 5641 5639 5637 5635 5634 5632 5630 5629 5627 5626 5624 5623 5621 5620 5618 5616 5614 5612 5610 5609 5607 5606 5605 5605 5605 5604 5604 5604 5603 5603 5603 5603 5603 5604 5604 5604 5605 5606 5606 5607 5608 5608 5608 5609 5610 5611 5612 5613 5614 5616 5618 5620
5728 5726 5724 5721 5719 5717 5714 5712 5710 5707 5705 5702 5699 5696 5693 5690 5686 5682 5678 5676 5673 5670 5667 5665 5662 5660 5658 5656 5653 5651 5650 5648 5645 5643 5640 5638 5635 5633 5631 5630 5629 5628 5626 5625 5623 5622 5620 5618 5617 5615 5613 5612 5609 5607 5605 5604 5603 5602 5602 5601 5601 5601 5601 5600 5600 5600 5600 5600 5601 5601 5602 5602 5603 5603 5604 5605 5606 5606 5607 5608 5609 5610 5611 5612 5613 5615 5616
5727 5725 5723 5720 5718 5715 5713 5711 5708 5706 5703 5700 5697 5694 5691 5688 5684 5680 5676 5673 5670 5668 5665 5662 5660 5658 5656 5653 5651 5649 5647 5645 5643 5641 5638 5635 5633 5631 5629 5627 5626 5625 5623 5622 5620 5618 5617 5615 5613 5612 5610 5608 5606 5604 5603 5602 5600 5599 5598 5598 5598 5598 5597 5597 5597 5596 5596 5597 5598 5598 5599 5599 5600 5600 5601 5602 5603 5604 5605 5606 5606 5607 5608 5609 5611 5612 5614